Flag Weather past 2 weeks in Sfax, Tunisia

Now
55 °F

Clear.


Feels Like: 55 °F
Forecast: 55 / 71 °F
Wind: 1 mph from North

Location: Sfax El-Maou

Current Time: Nov 22, 2014 at 4:20:30 AM

Latest Report: Nov 22, 2014 at 1:00 AM


Visibility: 10 mi

Pressure: 30.12 "Hg

Humidity: 67%

Dew point: 45 °F

Location of SfaxLocation

Historic Weather in Sfax — Graph

°F

Sfax temperature yesterday

Maximum temperature yesterday: 77 °F (at 3:00 PM)
Minimum temperature yesterday: 52 °F (at 7:00 AM)
Average temperature yesterday: 65 °F

Past Weeks' High & Low Weather Summary

 TemperatureHumidityPressure
High82 °F (Nov 15, 3:00 PM)100% (Nov 19, 5:00 AM)30.18 "Hg (Nov 19, 5:00 AM)
Low52 °F (Nov 20, 7:00 AM)24% (Nov 15, 4:00 PM)29.62 "Hg (Nov 11, 1:00 PM)
Average66 °F66%29.95 "Hg
* Reported Nov 7 1:00 AM — Nov 22 1:00 AM, Sfax, Weather by CustomWeather, © 2014

Note: Actual official high and low records may vary slightly from our data, if they occured in-between our weather recording intervals... More about our weather records

Advertising

Sfax weather history for previous 24 hours

 ConditionsComfort  
Time TempWeatherWind HumidityBarometerVisibility
1:00 AM
Nov 22
55 °FClear.1 mph67%30.12 "Hg10 mi
12:00 AM57 °FPassing clouds.3 mph63%30.12 "HgN/A
11:00 PM
Nov 21
57 °FClear.3 mph63%30.15 "Hg10 mi
10:00 PM61 °FClear.2 mph59%30.12 "Hg10 mi
9:00 PM63 °FClear.7 mph64%30.12 "Hg10 mi
8:00 PM63 °FClear.7 mph77%30.12 "Hg10 mi
7:00 PM66 °FClear.6 mph73%30.12 "Hg10 mi
6:00 PM70 °FClear.8 mph69%30.09 "Hg10 mi
5:00 PM72 °FSunny.8 mph61%30.09 "Hg10 mi
4:00 PM75 °FSunny.10 mph47%30.09 "Hg10 mi
3:00 PM77 °FSunny.10 mph44%30.09 "Hg10 mi
2:00 PM75 °FPassing clouds.9 mph47%30.12 "HgN/A
1:00 PM75 °FPassing clouds.10 mph44%30.15 "HgN/A
12:00 PM75 °FSunny.9 mph44%30.18 "Hg10 mi
11:00 AM73 °FClear.7 mph65%30.18 "Hg5 mi
10:00 AM70 °FClear.3 mph78%30.18 "Hg5 mi
9:00 AM63 °FClear.No wind88%30.18 "Hg3 mi
8:00 AM55 °FFog.3 mph94%30.18 "Hg1 mi
7:00 AM52 °FFog.2 mph100%30.15 "Hg2 mi
5:00 AM54 °FClear.2 mph94%30.15 "Hg4 mi
Weather by CustomWeather, © 2014

See weather overviewHow to use our weather pages